Weather History for Newport Airport, OR

Change the Weather History Date:

Wednesday, November 27, 2013

  Actual Average Record
Temperature  
Mean Temperature 52 °F -  
Max Temperature 59 °F 51 °F 64 °F (2002)
Min Temperature 44 °F 42 °F 33 °F (1996)
Degree Days  
Heating Degree Days 14    
Growing Degree Days 2 (Base 50)    
Moisture  
Dew Point 35 °F    
Average Humidity 57    
Maximum Humidity 71    
Minimum Humidity 42    
Precipitation  
Precipitation 0.00 in - - ()
Sea Level Pressure  
Sea Level Pressure 29.97 in    
Wind  
Wind Speed 12 mph (East)    
Max Wind Speed 16 mph    
Max Gust Speed 20 mph    
Visibility 10 miles    
Events      
Averages and records for this station are not official NWS values.
T = Trace of Precipitation, MM = Missing Value Source: NWS Daily Summary

Daily Weather History Graph

Daily Weather History Graph

Search for Another Location

Airport:

Trip Planner

Search our weather history database for the weather conditions in past years. The results will help you decide how hot, cold, wet, or windy it might be!

Date:

Astronomy

Nov. 27, 2013 Rise Set
Actual Time 7:28 AM PST 4:39 PM PST
Civil Twilight 6:56 AM PST 5:11 PM PST
Nautical Twilight 6:19 AM PST 5:47 PM PST
Astronomical Twilight 5:44 AM PST 6:22 PM PST
Moon 1:23 AM PST (11/27) 1:31 PM PST (11/27)
Length of Visible Light 10h 15m
Length of Day
9h 10m
Waning Crescent, 30% of the Moon is Illuminated
Nov 27
Waning Crescent
Dec 2
New
Dec 9
First Quarter
Dec 17
Full
Dec 25
Last Quarter

Hourly Weather History & Observations

Time (PST) Temp. Windchill Dew Point Humidity Pressure Visibility Wind Dir Wind Speed Gust Speed Precip Events Conditions
12:15 AM 46.4 °F 40.1 °F 35.6 °F 66% 30.03 in 10.0 mi East 15.0 mph 19.6 mph N/A   Clear
12:35 AM 46.4 °F 40.4 °F 35.6 °F 66% 30.03 in 10.0 mi East 13.8 mph - N/A   Clear
12:55 AM 46.4 °F 40.4 °F 35.6 °F 66% 30.02 in 10.0 mi East 13.8 mph - N/A   Clear
1:15 AM 46.4 °F 40.1 °F 35.6 °F 66% 30.02 in 10.0 mi East 15.0 mph - N/A   Clear
1:35 AM 46.4 °F 40.7 °F 35.6 °F 66% 30.01 in 10.0 mi East 12.7 mph - N/A   Clear
1:55 AM 46.4 °F 41.1 °F 35.6 °F 66% 30.01 in 10.0 mi East 11.5 mph - N/A   Clear
2:15 AM 48.2 °F - 35.6 °F 62% 30.01 in 10.0 mi East 13.8 mph - N/A   Clear
2:35 AM 48.2 °F - 35.6 °F 62% - 10.0 mi East 12.7 mph - N/A   Clear
2:55 AM 48.2 °F - 35.6 °F 62% 30.01 in 10.0 mi East 11.5 mph - N/A   Clear
3:15 AM 48.2 °F - 35.6 °F 62% 30.01 in 10.0 mi East 11.5 mph 16.1 mph N/A   Clear
3:35 AM 48.2 °F - 35.6 °F 62% - 10.0 mi East 12.7 mph - N/A   Clear
3:55 AM 48.2 °F - 35.6 °F 62% - 10.0 mi East 11.5 mph - N/A   Clear
4:15 AM 46.4 °F 40.7 °F 35.6 °F 66% 29.99 in 10.0 mi East 12.7 mph - N/A   Clear
4:35 AM 46.4 °F 40.4 °F 35.6 °F 66% 29.99 in 10.0 mi East 13.8 mph - N/A   Clear
4:55 AM 46.4 °F 41.1 °F 35.6 °F 66% 29.98 in 10.0 mi ENE 11.5 mph - N/A   Clear
5:15 AM 46.4 °F 41.1 °F 35.6 °F 66% 29.98 in 10.0 mi East 11.5 mph - N/A   Clear
5:35 AM 46.4 °F 40.4 °F 35.6 °F 66% 29.98 in 10.0 mi East 13.8 mph - N/A   Clear
5:55 AM 44.6 °F 38.8 °F 35.6 °F 71% 29.98 in 10.0 mi East 11.5 mph - N/A   Clear
6:15 AM 46.4 °F 40.4 °F 35.6 °F 66% 29.98 in 10.0 mi East 13.8 mph - N/A   Clear
6:35 AM 46.4 °F 41.1 °F 33.8 °F 62% 29.98 in 10.0 mi East 11.5 mph - N/A   Clear
6:55 AM 46.4 °F 40.7 °F 33.8 °F 62% 29.97 in 10.0 mi East 12.7 mph - N/A   Clear
7:15 AM 46.4 °F 41.1 °F 33.8 °F 62% - 10.0 mi East 11.5 mph - N/A   Clear
7:35 AM 46.4 °F 40.7 °F 33.8 °F 62% 29.98 in 10.0 mi East 12.7 mph - N/A   Clear
7:55 AM 46.4 °F 41.1 °F 33.8 °F 62% - 10.0 mi East 11.5 mph - N/A   Clear
8:15 AM 46.4 °F 42.9 °F 33.8 °F 62% 29.99 in 10.0 mi East 6.9 mph - N/A   Clear
8:35 AM 46.4 °F 43.5 °F 33.8 °F 62% 30.00 in 10.0 mi East 5.8 mph - N/A   Clear
8:55 AM 48.2 °F - 33.8 °F 58% 29.99 in 10.0 mi East 9.2 mph - N/A   Clear
9:15 AM 50.0 °F - 35.6 °F 58% 29.99 in 10.0 mi East 11.5 mph - N/A   Clear
9:35 AM 50.0 °F - 35.6 °F 58% 29.99 in 10.0 mi East 9.2 mph - N/A   Clear
9:55 AM 51.8 °F - 35.6 °F 54% 29.99 in 10.0 mi East 11.5 mph - N/A   Clear
10:15 AM 51.8 °F - 35.6 °F 54% 29.99 in 10.0 mi East 12.7 mph - N/A   Clear
10:35 AM 53.6 °F - 35.6 °F 51% 29.98 in 10.0 mi East 13.8 mph - N/A   Clear
10:55 AM 55.4 °F - 35.6 °F 47% 29.98 in 10.0 mi East 11.5 mph 17.3 mph N/A   Clear
11:15 AM 55.4 °F - 35.6 °F 47% 29.97 in 10.0 mi East 12.7 mph - N/A   Clear
11:35 AM 57.2 °F - 35.6 °F 44% 29.96 in 10.0 mi East 10.4 mph - N/A   Clear
11:55 AM 57.2 °F - 35.6 °F 44% 29.96 in 10.0 mi East 10.4 mph - N/A   Clear
12:15 PM 55.4 °F - 35.6 °F 47% 29.95 in 10.0 mi East 9.2 mph - N/A   Clear
12:35 PM 59.0 °F - 35.6 °F 42% 29.95 in 10.0 mi East 12.7 mph - N/A   Clear
12:55 PM 57.2 °F - 35.6 °F 44% 29.95 in 10.0 mi East 4.6 mph - N/A   Clear
1:15 PM 57.2 °F - 37.4 °F 48% 29.95 in 10.0 mi East 3.5 mph - N/A   Clear
1:35 PM 57.2 °F - 37.4 °F 48% 29.94 in 10.0 mi East 4.6 mph - N/A   Clear
1:55 PM 59.0 °F - 37.4 °F 45% 29.94 in 10.0 mi East 6.9 mph - N/A   Clear
2:15 PM 59.0 °F - 37.4 °F 45% 29.93 in 10.0 mi ENE 8.1 mph - N/A   Clear
2:35 PM 59.0 °F - 39.2 °F 48% 29.93 in 10.0 mi East 8.1 mph - N/A   Clear
2:55 PM 57.2 °F - 39.2 °F 51% 29.93 in 10.0 mi East 9.2 mph - N/A   Clear
3:15 PM 55.4 °F - 37.4 °F 51% 29.93 in 10.0 mi East 9.2 mph - N/A   Clear
3:35 PM 55.4 °F - 37.4 °F 51% 29.93 in 10.0 mi East 9.2 mph - N/A   Clear
3:55 PM 53.6 °F - 39.2 °F 58% 29.92 in 10.0 mi East 11.5 mph - N/A   Clear
4:15 PM 53.6 °F - 37.4 °F 54% 29.92 in 10.0 mi East 12.7 mph 16.1 mph N/A   Clear
4:35 PM 53.6 °F - 35.6 °F 51% 29.92 in 10.0 mi East 13.8 mph 17.3 mph N/A   Clear
4:55 PM 53.6 °F - 35.6 °F 51% 29.93 in 10.0 mi East 16.1 mph - N/A   Clear
5:15 PM 53.6 °F - 33.8 °F 47% 29.93 in 10.0 mi East 15.0 mph - N/A   Clear
5:35 PM 51.8 °F - 33.8 °F 50% 29.93 in 10.0 mi East 10.4 mph 16.1 mph N/A   Clear
5:55 PM 51.8 °F - 33.8 °F 50% 29.94 in 10.0 mi Calm Calm - N/A   Clear
6:15 PM 51.8 °F - 33.8 °F 50% 29.95 in 10.0 mi East 5.8 mph - N/A   Clear
6:35 PM 50.0 °F - 33.8 °F 54% 29.94 in 10.0 mi East 8.1 mph - N/A   Clear
6:55 PM 50.0 °F - 33.8 °F 54% 29.95 in 10.0 mi East 9.2 mph - N/A   Clear
7:15 PM 50.0 °F - 33.8 °F 54% 29.95 in 10.0 mi East 10.4 mph - N/A   Clear
7:35 PM 50.0 °F - 33.8 °F 54% 29.96 in 10.0 mi East 6.9 mph - N/A   Clear
7:55 PM 48.2 °F - 33.8 °F 58% - 10.0 mi East 9.2 mph - N/A   Clear
8:15 PM 48.2 °F - 33.8 °F 58% 29.96 in 10.0 mi East 10.4 mph - N/A   Clear
8:35 PM 48.2 °F - 33.8 °F 58% 29.96 in 10.0 mi East 12.7 mph - N/A   Clear
8:55 PM 50.0 °F - 33.8 °F 54% 29.96 in 10.0 mi East 10.4 mph - N/A   Clear
9:15 PM 48.2 °F - 33.8 °F 58% 29.96 in 10.0 mi East 12.7 mph 18.4 mph N/A   Clear
9:35 PM 48.2 °F - 33.8 °F 58% 29.97 in 10.0 mi East 12.7 mph 17.3 mph N/A   Clear
9:55 PM 48.2 °F - 33.8 °F 58% 29.97 in 10.0 mi East 10.4 mph - N/A   Clear
10:15 PM 48.2 °F - 33.8 °F 58% 29.97 in 10.0 mi East 12.7 mph - N/A   Clear
10:35 PM 48.2 °F - 33.8 °F 58% 29.98 in 10.0 mi East 12.7 mph - N/A   Clear
10:55 PM 48.2 °F - 33.8 °F 58% 29.98 in 10.0 mi East 12.7 mph 17.3 mph N/A   Clear
11:15 PM 48.2 °F - 33.8 °F 58% 29.98 in 10.0 mi East 11.5 mph - N/A   Clear
11:35 PM 48.2 °F - 33.8 °F 58% 29.99 in 10.0 mi East 10.4 mph 16.1 mph N/A   Clear
11:55 PM 46.4 °F 43.5 °F 32.0 °F 57% 29.99 in 10.0 mi East 5.8 mph - N/A   Clear